レナード彗星

C/2024 G5 ( Leonard )

English version
Home page
Updated on May 11, 2024

---------------------------------------------------------------------

・ プロフィール

発見日 2024年4月5日
発見光度 20.8等
発見者 G. J. Leonard (Mt. Lemmon Survey)

・ 軌道要素

Epoch 2024 Mar. 31.0 TT = JDT 2460400.5                                         
T 2024 Sept. 6.98478 TT                                 Rudenko                 
q   2.9529125            (2000.0)            P               Q                  
z  +0.0018833      Peri.  209.55729     -0.84680943     -0.02523943             
 +/-0.0000138      Node   316.39882     +0.49259955     -0.41401957             
e   0.9944387      Incl.   50.39019     -0.20064761     -0.90991800             
>From 92 observations 2023 Dec. 15-2024 May 5, mean residual 0".4.               

・ 光度変化

        m1 = 7.0 + 5 logΔ + 20.0 log r

---------------------------------------------------------------------

軌道要素はM.P.E.C. 2024-J126に掲載されたものです。
光度グラフはComet for Windowsで作成したものです。

---------------------------------------------------------------------

Copyright(C) Seiichi Yoshida (comet@aerith.net). All rights reserved.